Home > Weather > Norman Wells > Past weeks

Flag for Canada Past Weather in Norman Wells, Northwest Territories, Canada — Yesterday and Last 2 Weeks

Now
63 °F

Broken clouds.


Feels Like: 63 °F
Forecast: 54 / 80 °F
Wind: 3 mph from Northwest

Location: Norman Wells

Current Time: Jun 28, 2016 at 5:37:37 AM

Latest Report: Jun 28, 2016 at 5:00 AM


Visibility: 30 mi

Pressure: 30.06 "Hg

Humidity: 73%

Dew Point: 54 °F

Location of Norman WellsLocation

Past Weather in Norman Wells — Graph

°F

Norman Wells Temperature Yesterday

Maximum temperature yesterday: 81 °F (at 4:00 PM)
Minimum temperature yesterday: 52 °F (at 5:00 AM)
Average temperature yesterday: 70 °F

High & Low Weather Summary for the Past Weeks

 TemperatureHumidityPressure
High86 °F (Jun 19, 5:00 PM)100% (Jun 13, 4:00 AM)30.11 "Hg (Jun 13, 4:00 AM)
Low30 °F (Jun 18, 4:00 AM)20% (Jun 19, 5:00 PM)29.63 "Hg (Jun 20, 4:00 PM)
Average60 °F65%29.89 "Hg
* Reported Jun 13 4:00 AM — Jun 28 4:00 AM, Norman Wells, Weather by CustomWeather, © 2016

Note: Actual official high and low records may vary slightly from our data, if they occured in-between our weather recording intervals... More about our weather records

Advertising

Norman Wells Weather History for the Previous 24 Hours

Scroll right to see more
 ConditionsComfort  
Time TempWeatherWind HumidityBarometerVisibility
4:00 AM
Tue, Jun 28
61 °FThunderstorms. Partly cloudy.13 mph83%30.06 "Hg30 mi
3:00 AM66 °FBroken clouds.13 mph60%30.03 "Hg30 mi
2:00 AM64 °FBroken clouds.2 mph56%30.00 "Hg30 mi
1:00 AM68 °FBroken clouds.3 mph49%29.99 "Hg30 mi
12:00 AM70 °FBroken clouds.5 mph50%29.98 "Hg30 mi
11:00 PM
Mon, Jun 27
72 °FPartly sunny.6 mph47%29.97 "Hg30 mi
10:00 PM75 °FBroken clouds.No wind61%29.96 "Hg30 mi
9:00 PM79 °FPartly sunny.2 mph42%29.95 "Hg30 mi
8:00 PM81 °FBroken clouds.7 mph34%29.94 "Hg30 mi
7:00 PM81 °FScattered clouds.8 mph32%29.95 "Hg30 mi
6:00 PM81 °FScattered clouds.10 mph32%29.95 "Hg30 mi
5:00 PM81 °FScattered clouds.5 mph32%29.95 "Hg30 mi
4:00 PM81 °FScattered clouds.7 mph32%29.95 "Hg30 mi
3:00 PM79 °FScattered clouds.12 mph32%29.96 "Hg30 mi
2:00 PM77 °FBroken clouds.9 mph39%29.97 "Hg30 mi
1:00 PM75 °FBroken clouds.13 mph44%29.97 "Hg30 mi
12:00 PM73 °FBroken clouds.10 mph50%29.97 "Hg30 mi
11:00 AM70 °FBroken clouds.5 mph57%29.97 "Hg30 mi
10:00 AM68 °FBroken clouds.3 mph60%29.97 "Hg30 mi
9:00 AM66 °FPartly sunny.No wind68%29.96 "Hg30 mi
8:00 AM64 °FPartly sunny.3 mph68%29.96 "Hg30 mi
7:00 AM63 °FBroken clouds.No wind73%29.96 "Hg30 mi
6:00 AM55 °FBroken clouds.No wind82%29.95 "Hg30 mi
5:00 AM52 °FBroken clouds.3 mph94%29.95 "Hg30 mi
Weather by CustomWeather, © 2016

See weather overviewHow to use our weather pages